This is the latest recevied weather packets stored in our database for station/object N8SDR. If no packets are shown the sender has not sent any weather packets the latest 1 day(s).
| Time | Temp. | Humidity | Pressure | Rain* | Wind** | Luminosity | Snow |
|---|---|---|---|---|---|---|---|
| 1778018705 | 16.11° C | 99% | 1004.4 hPa | 1.78 mm | 0.45 m/s, 237° | 57 W/m² | - |
| 1778018403 | 16.11° C | 99% | 1004.5 hPa | 1.78 mm | 1.34 m/s, 206° | 39 W/m² | - |
| 1778018101 | 16.11° C | 99% | 1004.6 hPa | 1.27 mm | 0 m/s | 42 W/m² | - |
| 1778017798 | 16.11° C | 99% | 1004.3 hPa | 1.27 mm | 1.79 m/s, 213° | 40 W/m² | - |
| 1778017496 | 16.11° C | 99% | 1004.2 hPa | 3.56 mm | 0.89 m/s, 217° | 46 W/m² | - |
| 1778017193 | 16.11° C | 99% | 1004.3 hPa | 1.78 mm | 0.89 m/s, 214° | 75 W/m² | - |
| 1778016891 | 16.11° C | 99% | 1004.2 hPa | 0 mm | 1.79 m/s, 187° | 65 W/m² | - |
| 1778016587 | 16.11° C | 99% | 1004.5 hPa | 0 mm | 1.34 m/s, 196° | 35 W/m² | - |
| 1778016283 | 16.11° C | 99% | 1004.3 hPa | 3.05 mm | 1.79 m/s, 212° | 67 W/m² | - |
| 1778015980 | 16.11° C | 99% | 1004.2 hPa | 3.05 mm | 0.89 m/s, 189° | 55 W/m² | - |
| 1778015678 | 16.11° C | 99% | 1004.3 hPa | 1.27 mm | 0.45 m/s, 215° | 26 W/m² | - |
| 1778015374 | 16.11° C | 99% | 1004.5 hPa | 3.05 mm | 0.45 m/s, 191° | 31 W/m² | - |
| 1778015071 | 16.11° C | 99% | 1004.5 hPa | 1.78 mm | 0.89 m/s, 230° | 20 W/m² | - |
| 1778014767 | 16.11° C | 99% | 1004.6 hPa | 0 mm | 0.45 m/s, 215° | 34 W/m² | - |
| 1778014466 | 16.11° C | 99% | 1004.2 hPa | 0 mm | 0 m/s | 59 W/m² | - |
| 1778014163 | 16.11° C | 99% | 1004.3 hPa | 0 mm | 0.45 m/s, 196° | 68 W/m² | - |
| 1778013860 | 16.11° C | 99% | 1004.5 hPa | 0 mm | 1.34 m/s, 259° | 80 W/m² | - |
| 1778013558 | 16.11° C | 99% | 1004.7 hPa | 0 mm | 0 m/s | 79 W/m² | - |
| 1778013254 | 16.11° C | 99% | 1004.6 hPa | 0 mm | 1.34 m/s, 185° | 112 W/m² | - |
| 1778012950 | 16.11° C | 99% | 1004.6 hPa | 1.27 mm | 0 m/s | 123 W/m² | - |
| 1778012646 | 16.11° C | 99% | 1004.7 hPa | 1.27 mm | 0 m/s | 121 W/m² | - |
| 1778012343 | 16.11° C | 99% | 1004.4 hPa | 1.78 mm | 0.45 m/s, 225° | 97 W/m² | - |
| 1778012040 | 16.11° C | 99% | 1004.5 hPa | 1.78 mm | 0.45 m/s, 57° | 88 W/m² | - |
| 1778011739 | 16.11° C | 99% | 1004.8 hPa | 1.27 mm | 0.45 m/s, 249° | 96 W/m² | - |
| 1778011435 | 16.11° C | 99% | 1004.6 hPa | 1.27 mm | 0 m/s | 105 W/m² | - |
* Rain latest hour (hover to see other rain measurements)
** Current wind speed in m/s (hover to see current wind gust speed)